Weather History for PASN - November, 2012

Change the Weather History Date:

Monday, November 19, 2012

  Actual Average Record
Temperature  
Mean Temperature 28 °F 32 °F  
Max Temperature 31 °F 36 °F 45 °F (1978)
Min Temperature 24 °F 28 °F 10 °F (1983)
Degree Days  
Heating Degree Days 37 33  
Month to date heating degree days 611 591  
Since 1 July heating degree days 3274 3051  
Cooling Degree Days 0    
Month to date cooling degree days 0  
Year to date cooling degree days 0  
Moisture  
Dew Point 20 °F    
Average Humidity 71    
Maximum Humidity 75    
Minimum Humidity 64    
Precipitation  
Precipitation 0.00 in 0.10 in 0.70 in (1995)
Month to date precipitation 1.25 1.89  
Year to date precipitation 23.49 20.42  
Snow  
Snow 0.00 in 0.30 in 2.80 in (1960)
Month to date snowfall 3.0 4.6  
Since 1 July snowfall 3.8 6.6  
Since 1 September snowfall 3.8 6.6  
Snow Depth 3.00 in    
Sea Level Pressure  
Sea Level Pressure 30.15 in    
Wind  
Wind Speed 16 mph (NNE)    
Max Wind Speed 25 mph    
Max Gust Speed 29 mph    
Visibility 10 miles    
Events      
T = Trace of Precipitation, MM = Missing Value Source: NWS Daily Summary

Daily Weather History Graph

Daily Weather History Graph

Search for Another Location

Airport or City:

Trip Planner

Search our weather history database for the weather conditions in past years. The results will help you decide how hot, cold, wet, or windy it might be!

Date:

Astronomy

Nov. 19, 2012 Rise Set
Actual Time 10:13 AM AKST 5:59 PM AKST
Civil Twilight 9:28 AM AKST 6:44 PM AKST
Nautical Twilight 8:40 AM AKST 7:32 PM AKST
Astronomical Twilight 7:54 AM AKST 8:17 PM AKST
Moon 2:51 PM AKST (11/19) No Moon Set
Length of Visible Light 9h 15m
Length of Day
7h 45m
Waxing Crescent, 42% of the Moon is Illuminated
Nov 19
Waxing Crescent
Nov 20
First Quarter
Nov 28
Full
Dec 6
Last Quarter
Dec 12
New

Hourly Weather History & Observations

Time (AKST) Temp. Windchill Dew Point Humidity Pressure Visibility Wind Dir Wind Speed Gust Speed Precip Events Conditions
12:48 AM 30.2 °F 18.1 °F 21.2 °F 69% 30.17 in 10.0 mi North 18.4 mph - N/A   Overcast
12:53 AM 30.0 °F 18.3 °F 23.0 °F 75% 30.18 in 10.0 mi North 17.3 mph 24.2 mph N/A   Overcast
1:53 AM 30.0 °F 17.5 °F 21.9 °F 72% 30.19 in 10.0 mi North 19.6 mph - N/A   Overcast
3:53 AM 30.0 °F 16.9 °F 21.9 °F 72% 30.19 in 10.0 mi North 21.9 mph - N/A   Overcast
4:53 AM 30.0 °F 17.2 °F 23.0 °F 75% 30.19 in 10.0 mi North 20.7 mph - N/A   Overcast
5:53 AM 30.0 °F 18.7 °F 21.9 °F 72% 30.19 in 10.0 mi North 16.1 mph 24.2 mph N/A   Overcast
6:53 AM 30.0 °F 18.3 °F 23.0 °F 75% 30.19 in 10.0 mi North 17.3 mph - N/A   Overcast
7:53 AM 30.0 °F 17.5 °F 23.0 °F 75% 30.17 in 10.0 mi North 19.6 mph - N/A   Overcast
8:53 AM 30.0 °F 17.2 °F 21.9 °F 72% 30.17 in 10.0 mi North 20.7 mph 27.6 mph N/A   Overcast
9:53 AM 30.0 °F 17.5 °F 21.0 °F 69% 30.17 in 10.0 mi North 19.6 mph - N/A   Overcast
10:53 AM 30.0 °F 18.3 °F 21.0 °F 69% 30.17 in 10.0 mi North 17.3 mph - N/A   Overcast
11:53 AM 30.9 °F 19.8 °F 21.9 °F 69% 30.16 in 10.0 mi NNE 16.1 mph - N/A   Overcast
12:53 PM 30.9 °F 21.2 °F 21.9 °F 69% 30.15 in 10.0 mi North 12.7 mph - N/A   Overcast
1:25 PM 30.2 °F 18.9 °F 23.0 °F 75% 30.14 in 10.0 mi NNE 16.1 mph - N/A   Overcast
1:53 PM 30.9 °F 20.2 °F 23.0 °F 72% 30.14 in 10.0 mi NNE 15.0 mph - N/A   Mostly Cloudy
2:53 PM 30.0 °F 18.3 °F 21.0 °F 69% 30.13 in 10.0 mi NNE 17.3 mph 23.0 mph N/A   Scattered Clouds
3:14 PM 28.4 °F 17.5 °F 19.4 °F 69% 30.13 in 10.0 mi NNE 13.8 mph - N/A   Mostly Cloudy
3:22 PM 28.4 °F 17.5 °F 19.4 °F 69% 30.13 in 10.0 mi NNE 13.8 mph 21.9 mph N/A   Scattered Clouds
3:48 PM 28.4 °F 18.0 °F 19.4 °F 69% 30.12 in 10.0 mi NNE 12.7 mph 19.6 mph N/A   Mostly Cloudy
3:53 PM 28.9 °F 18.2 °F 19.9 °F 69% 30.13 in 10.0 mi NNE 13.8 mph 19.6 mph N/A   Mostly Cloudy
4:02 PM 28.4 °F 17.0 °F 19.4 °F 69% 30.12 in 10.0 mi NNE 15.0 mph - N/A   Scattered Clouds
4:39 PM 28.4 °F 18.5 °F 17.6 °F 64% 30.12 in 10.0 mi NNE 11.5 mph - N/A   Mostly Cloudy
4:53 PM 27.0 °F 15.6 °F 18.0 °F 69% 30.12 in 10.0 mi NNE 13.8 mph - N/A   Mostly Cloudy
5:32 PM 26.6 °F 15.2 °F 17.6 °F 69% 30.11 in 10.0 mi NNE 13.8 mph - N/A   Scattered Clouds
5:53 PM 25.0 °F 14.2 °F 17.1 °F 72% 30.11 in 10.0 mi NNE 11.5 mph - N/A   Partly Cloudy
6:53 PM 25.0 °F 14.8 °F 17.1 °F 72% 30.13 in 10.0 mi NNE 10.4 mph - N/A   Mostly Cloudy
7:53 PM 26.1 °F 16.8 °F 17.1 °F 69% 30.13 in 10.0 mi NNE 9.2 mph - N/A   Mostly Cloudy
8:53 PM 26.1 °F 15.0 °F 17.1 °F 69% 30.13 in 10.0 mi NNE 12.7 mph - N/A   Mostly Cloudy
9:53 PM 25.0 °F 12.6 °F 17.1 °F 72% 30.13 in 10.0 mi NE 15.0 mph - N/A   Mostly Cloudy
10:10 PM 24.8 °F 14.0 °F 17.6 °F 74% 30.12 in 10.0 mi NNE 11.5 mph - N/A   Scattered Clouds
10:33 PM 24.8 °F 13.4 °F 15.8 °F 69% 30.12 in 10.0 mi NNE 12.7 mph - N/A   Mostly Cloudy
10:53 PM 25.0 °F 14.2 °F 17.1 °F 72% 30.12 in 10.0 mi NNE 11.5 mph - N/A   Mostly Cloudy
11:53 PM 25.0 °F 14.2 °F 16.0 °F 69% 30.12 in 10.0 mi NNE 11.5 mph - N/A   Mostly Cloudy